Powrót do katalogu

ATLAS 5 CENTAUR DEB

LostHEO
NORAD 46654·DEBRIS·🇺🇸 United States

Wystrzelony Sep 17, 2014 z Cape Canaveral Space Force Station

Loading…

Następne Przeloty (najbliższe 24 godziny)

TLE

NieaktualneSource: Space-Track

Epoka: May 31, 2026, 23:38 UTC

1 46654U 14055DD  26151.98487863  .00000150  00000-0  00000-0 0  9994
2 46654  20.7676  82.0062 5156537 275.5750  30.3827  1.96050936 40473

Śledź ATLAS 5 CENTAUR DEB w czasie rzeczywistym z AllMySat

Download on the App Store